Robstown, TX

1:16 AM CDT on April 24, 2017 (GMT -0500)
Robstown

Weather History for KRBO - May, 2013

Change the Weather History Date:

Thursday, May 16, 2013

  Actual Average (KCRP) Record (KCRP)
Temperature  
Mean Temperature 82 °F -  
Max Temperature 92 °F 84 °F 94 °F (2003)
Min Temperature 72 °F 67 °F 51 °F (1973)
Cooling Degree Days 16    
Growing Degree Days 32 (Base 50)    
Moisture  
Dew Point 72 °F    
Average Humidity 76    
Maximum Humidity 91    
Minimum Humidity 51    
Precipitation  
Precipitation 0.00 in - - ()
Sea Level Pressure  
Sea Level Pressure 29.82 in    
Wind  
Wind Speed 15 mph (SSE)    
Max Wind Speed 24 mph    
Max Gust Speed 31 mph    
Visibility 10 miles    
Events      
Averages and records for this station are not official NWS values.
T = Trace of Precipitation, MM = Missing Value Source: NWS Daily Summary

Daily Weather History Graph

Daily Weather History Graph

Search for Another Location

Airport or City:

Trip Planner

Search our weather history database for the weather conditions in past years. The results will help you decide how hot, cold, wet, or windy it might be!

Date:

Astronomy

May. 16, 2013 Rise Set
Actual Time 6:40 AM CDT 8:13 PM CDT
Civil Twilight 6:15 AM CDT 8:39 PM CDT
Nautical Twilight 5:44 AM CDT 9:10 PM CDT
Astronomical Twilight 5:12 AM CDT 9:42 PM CDT
Moon 12:06 PM CDT (5/16) 12:43 AM CDT (5/16)
Length of Visible Light 14h 24m
Length of Day
13h 33m
Waxing Crescent, 36% of the Moon is Illuminated
May 16
Waxing Crescent
May 17
First Quarter
May 24
Full
May 31
Last Quarter
Jun 8
New

Hourly Weather History & Observations

Time (CDT) Temp. Heat Index Dew Point Humidity Pressure Visibility Wind Dir Wind Speed Gust Speed Precip Events Conditions
12:15 AM 74.3 °F - 70.7 °F 88% 29.90 in 10.0 mi SSE 15.0 mph - N/A   Clear
12:35 AM 74.3 °F - 70.7 °F 88% 29.90 in 10.0 mi SSE 11.5 mph - N/A   Scattered Clouds
12:55 AM 74.3 °F - 70.7 °F 88% 29.89 in 10.0 mi SSE 13.8 mph - N/A   Overcast
1:15 AM 74.3 °F - 70.7 °F 88% 29.89 in 10.0 mi SSE 15.0 mph 20.7 mph N/A   Overcast
1:35 AM 74.5 °F - 70.7 °F 88% 29.88 in 10.0 mi South 17.3 mph - N/A   Overcast
1:55 AM 74.5 °F - 70.7 °F 88% 29.87 in 10.0 mi South 16.1 mph - N/A   Overcast
2:15 AM 74.5 °F - 70.9 °F 88% 29.87 in 10.0 mi South 13.8 mph 18.4 mph N/A   Overcast
2:35 AM 74.3 °F - 70.9 °F 89% 29.86 in 10.0 mi South 15.0 mph - N/A   Overcast
2:55 AM 74.3 °F - 70.3 °F 87% 29.85 in 10.0 mi South 15.0 mph - N/A   Mostly Cloudy
3:15 AM 73.8 °F - 70.0 °F 88% 29.86 in 10.0 mi South 13.8 mph - N/A   Scattered Clouds
3:35 AM 73.4 °F - 70.0 °F 89% 29.86 in 10.0 mi SSE 11.5 mph - N/A   Mostly Cloudy
3:55 AM 73.4 °F - 70.0 °F 89% 29.85 in 10.0 mi South 11.5 mph - N/A   Overcast
4:15 AM 73.4 °F - 70.0 °F 89% 29.85 in 10.0 mi South 12.7 mph - N/A   Overcast
4:35 AM 73.0 °F - 69.8 °F 90% 29.84 in 10.0 mi South 11.5 mph - N/A   Overcast
4:55 AM 72.7 °F - 69.8 °F 91% 29.83 in 10.0 mi SSE 13.8 mph - N/A   Scattered Clouds
5:15 AM 72.9 °F - 69.8 °F 90% 29.83 in 10.0 mi South 13.8 mph - N/A   Mostly Cloudy
5:35 AM 73.0 °F - 69.8 °F 90% 29.82 in 10.0 mi South 15.0 mph - N/A   Overcast
5:55 AM 72.9 °F - 69.8 °F 90% 29.83 in 10.0 mi South 13.8 mph - N/A   Mostly Cloudy
6:15 AM 72.7 °F - 69.4 °F 90% 29.82 in 10.0 mi South 13.8 mph - N/A   Scattered Clouds
6:35 AM 72.5 °F - 69.4 °F 90% 29.83 in 10.0 mi South 10.4 mph - N/A   Mostly Cloudy
6:55 AM 72.5 °F - 69.4 °F 90% 29.82 in 10.0 mi SSE 11.5 mph - N/A   Mostly Cloudy
7:15 AM 72.9 °F - 69.8 °F 90% 29.83 in 10.0 mi SSE 11.5 mph - N/A   Mostly Cloudy
7:35 AM 73.4 °F - 70.0 °F 89% 29.85 in 10.0 mi South 8.1 mph - N/A   Overcast
7:55 AM 74.1 °F - 70.3 °F 88% 29.84 in 10.0 mi SSE 13.8 mph - N/A   Overcast
8:15 AM 75.2 °F - 70.7 °F 86% 29.84 in 10.0 mi SSE 13.8 mph - N/A   Overcast
8:35 AM 76.3 °F - 71.1 °F 84% 29.85 in 10.0 mi South 13.8 mph - N/A   Mostly Cloudy
8:55 AM 77.2 °F - 70.9 °F 81% 29.85 in 10.0 mi South 18.4 mph - N/A   Mostly Cloudy
9:15 AM 78.4 °F - 70.7 °F 77% 29.87 in 10.0 mi South 15.0 mph - N/A   Scattered Clouds
9:35 AM 79.5 °F - 70.9 °F 75% 29.87 in 10.0 mi South 12.7 mph 17.3 mph N/A   Scattered Clouds
9:55 AM 80.8 °F 84.4 °F 70.5 °F 71% 29.86 in 10.0 mi South 13.8 mph - N/A   Scattered Clouds
10:15 AM 82.2 °F 86.2 °F 70.3 °F 67% 29.86 in 10.0 mi SSE 13.8 mph - N/A   Scattered Clouds
10:35 AM 83.3 °F 87.6 °F 70.3 °F 65% 29.86 in 10.0 mi SSE 15.0 mph - N/A   Clear
10:55 AM 84.7 °F 89.1 °F 70.0 °F 61% 29.85 in 10.0 mi SSE 15.0 mph - N/A   Clear
11:15 AM 85.3 °F 90.4 °F 70.7 °F 62% 29.84 in 10.0 mi SSE 15.0 mph 18.4 mph N/A   Clear
11:35 AM 86.5 °F 91.8 °F 70.5 °F 59% 29.84 in 10.0 mi SSE 11.5 mph - N/A   Scattered Clouds
11:55 AM 87.6 °F 92.7 °F 70.2 °F 56% 29.84 in 10.0 mi SSE 12.7 mph 19.6 mph N/A   Clear
12:15 PM 88.5 °F 93.5 °F 70.0 °F 54% 29.83 in 10.0 mi SSE 12.7 mph 19.6 mph N/A   Clear
12:35 PM 89.6 °F 94.7 °F 70.0 °F 52% 29.83 in 10.0 mi SSE 15.0 mph 24.2 mph N/A   Clear
12:55 PM 90.7 °F 96.4 °F 70.5 °F 51% 29.82 in 10.0 mi SSE 17.3 mph 23.0 mph N/A   Clear
1:15 PM 90.1 °F 96.8 °F 71.6 °F 54% 29.81 in 10.0 mi SSE 15.0 mph 21.9 mph N/A   Clear
1:35 PM 90.3 °F 97.7 °F 72.1 °F 55% 29.81 in 10.0 mi SSE 15.0 mph 23.0 mph N/A   Scattered Clouds
2:15 PM 91.0 °F 99.8 °F 73.2 °F 56% 29.79 in 10.0 mi SSE 20.7 mph 27.6 mph N/A   Scattered Clouds
2:35 PM 91.4 °F 100.1 °F 73.4 °F 55% 29.79 in 10.0 mi SSE 19.6 mph 24.2 mph N/A   Scattered Clouds
2:55 PM 91.8 °F 100.9 °F 73.6 °F 55% 29.78 in 10.0 mi SSE 23.0 mph 27.6 mph N/A   Scattered Clouds
3:15 PM 91.8 °F 100.9 °F 73.6 °F 55% 29.78 in 10.0 mi SSE 19.6 mph 26.5 mph N/A   Clear
3:35 PM 91.6 °F 100.5 °F 73.4 °F 55% 29.77 in 10.0 mi SSE 23.0 mph 26.5 mph N/A   Scattered Clouds
3:55 PM 91.4 °F 100.7 °F 73.8 °F 56% 29.76 in 7.0 mi SSE 20.7 mph 28.8 mph N/A   Clear
4:15 PM 90.9 °F 100.0 °F 73.8 °F 57% 29.76 in 10.0 mi SE 21.9 mph 31.1 mph N/A   Clear
4:35 PM 90.7 °F 99.6 °F 73.8 °F 57% 29.76 in 10.0 mi SSE 21.9 mph 29.9 mph N/A   Clear
4:55 PM 90.7 °F 100.1 °F 73.9 °F 58% 29.75 in 7.0 mi SSE 21.9 mph 29.9 mph N/A   Clear
5:15 PM 90.3 °F 99.3 °F 73.9 °F 58% 29.74 in 10.0 mi SSE 19.6 mph 28.8 mph N/A   Clear
5:35 PM 89.8 °F 98.6 °F 73.9 °F 59% 29.74 in 10.0 mi SE 21.9 mph 28.8 mph N/A   Clear
5:55 PM 88.7 °F 97.7 °F 73.9 °F 62% 29.74 in 10.0 mi SSE 24.2 mph - N/A   Clear
6:15 PM 87.4 °F 95.8 °F 73.8 °F 64% 29.73 in 10.0 mi SSE 21.9 mph 29.9 mph N/A   Clear
6:35 PM 86.5 °F 94.6 °F 73.9 °F 66% 29.73 in 10.0 mi SSE 21.9 mph - N/A   Clear
6:55 PM 85.3 °F 92.6 °F 73.8 °F 68% 29.74 in 10.0 mi SSE 21.9 mph 28.8 mph N/A   Clear
7:15 PM 83.3 °F 89.6 °F 73.6 °F 72% 29.75 in 10.0 mi SSE 18.4 mph 28.8 mph N/A   Clear
7:35 PM 82.2 °F 88.0 °F 73.6 °F 75% 29.76 in 7.0 mi SSE 20.7 mph 27.6 mph N/A   Clear
7:55 PM 81.0 °F 86.0 °F 73.4 °F 78% 29.76 in 7.0 mi SSE 20.7 mph 24.2 mph N/A   Clear
8:15 PM 80.2 °F 84.7 °F 73.4 °F 80% 29.76 in 7.0 mi SSE 18.4 mph - N/A   Clear
8:35 PM 79.2 °F - 73.2 °F 82% 29.77 in 10.0 mi SSE 20.7 mph - N/A   Clear
8:55 PM 78.8 °F - 73.4 °F 83% 29.77 in 10.0 mi SSE 18.4 mph 24.2 mph N/A   Clear
9:15 PM 78.1 °F - 73.4 °F 85% 29.78 in 10.0 mi SSE 19.6 mph - N/A   Scattered Clouds
9:35 PM 77.9 °F - 73.4 °F 86% 29.79 in 10.0 mi SSE 19.6 mph 24.2 mph N/A   Clear
9:55 PM 77.5 °F - 73.0 °F 86% 29.79 in 7.0 mi SSE 17.3 mph 24.2 mph N/A   Clear
10:15 PM 77.4 °F - 73.0 °F 86% 29.80 in 10.0 mi SSE 18.4 mph 26.5 mph N/A   Clear
10:35 PM 77.4 °F - 73.4 °F 88% 29.81 in 10.0 mi SSE 16.1 mph - N/A   Clear
10:55 PM 77.0 °F - 73.2 °F 88% 29.82 in 7.0 mi SSE 13.8 mph 21.9 mph N/A   Clear
11:15 PM 76.8 °F - 73.4 °F 89% 29.82 in 7.0 mi SE 15.0 mph - N/A   Clear
11:35 PM 76.6 °F - 73.2 °F 89% 29.82 in 7.0 mi SSE 13.8 mph 18.4 mph N/A   Scattered Clouds
11:55 PM 76.5 °F - 73.4 °F 90% 29.82 in 7.0 mi SSE 15.0 mph 19.6 mph N/A   Scattered Clouds